QPF
0.23 0.30 0.20 0.97 1.57 0.66 0.12 0.00 0.01 0.03 0.01 0.00 0.00 0.00 0.00 0.00 0.00 0.00 0.00 0.00 0.00 0.00 0.00 0.00 0.00 0.00 0.00 0.00 0.00 0.00 0.00 0.00
0.10 0.21 0.24 0.10 0.87 0.81 0.18 0.03 0.00 0.01 0.00 0.00 0.00 0.00 0.00 0.00 0.00 0.00 0.00 0.00 0.00 0.00 0.00 0.00 0.00 0.00 0.00 0.00 0.00 0.00 0.00 0.00
0.02 0.24 0.65 0.38 0.45 0.50 0.19 0.07 0.03 0.01 0.00 0.00 0.00 0.00 0.00 0.00 0.00 0.00 0.00 0.00 0.00 0.00 0.00 0.00 0.00 0.00 0.00 0.00 0.00 0.00 0.00 0.00
0.01 0.23 0.96 0.92 0.56 0.33 0.20 0.15 0.08 0.06 0.00 0.00 0.00 0.00 0.00 0.00 0.00 0.00 0.00 0.00 0.00 0.00 0.00 0.00 0.00 0.00 0.00 0.00 0.00 0.00 0.00 0.00
0.00 0.05 0.39 0.61 0.46 0.30 0.16 0.09 0.07 0.02 0.00 0.00 0.00 0.00 0.00 0.00 0.00 0.00 0.00 0.00 0.00 0.00 0.00 0.00 0.00 0.00 0.00 0.00 0.00 0.00 0.00 0.00
0.00 0.00 0.04 0.18 0.23 0.16 0.08 0.06 0.03 0.01 0.00 0.00 0.00 0.00 0.00 0.00 0.00 0.00 0.00 0.00 0.00 0.00 0.00 0.00 0.00 0.00 0.00 0.00 0.00 0.00 0.00 0.00
0.01 0.00 0.00 0.01 0.02 0.01 0.00 0.00 0.01 0.00 0.00 0.00 0.00 0.00 0.00 0.00 0.00 0.00 0.00 0.00 0.00 0.00 0.00 0.00 0.00 0.00 0.00 0.00 0.00 0.00 0.00 0.00
0.03 0.06 0.03 0.04 0.01 0.00 0.00 0.00 0.00 0.00 0.00 0.00 0.00 0.00 0.00 0.00 0.00 0.00 0.00 0.00 0.00 0.00 0.00 0.00 0.00 0.00 0.00 0.00 0.00 0.00 0.00 0.00
0.02 0.04 0.06 0.11 0.04 0.00 0.00 0.00 0.00 0.00 0.00 0.00 0.00 0.00 0.00 0.00 0.00 0.00 0.00 0.00 0.00 0.00 0.00 0.00 0.00 0.00 0.00 0.00 0.00 0.00 0.00 0.00
0.02 0.03 0.10 0.05 0.01 0.00 0.00 0.00 0.00 0.00 0.00 0.00 0.00 0.00 0.00 0.00 0.00 0.00 0.00 0.00 0.00 0.00 0.00 0.00 0.00 0.00 0.00 0.00 0.00 0.00 0.00 0.00
0.05 0.02 0.07 0.08 0.01 0.01 0.00 0.00 0.00 0.00 0.00 0.00 0.00 0.00 0.00 0.00 0.00 0.00 0.00 0.00 0.00 0.00 0.00 0.00 0.00 0.00 0.00 0.00 0.00 0.00 0.00 0.00
0.01 0.01 0.03 0.03 0.01 0.01 0.00 0.01 0.00 0.00 0.00 0.00 0.00 0.00 0.00 0.00 0.00 0.00 0.00 0.00 0.00 0.00 0.00 0.00 0.00 0.00 0.00 0.00 0.00 0.00 0.00 0.00
0.00 0.00 0.01 0.02 0.01 0.00 0.00 0.00 0.00 0.00 0.00 0.00 0.00 0.00 0.00 0.00 0.00 0.00 0.00 0.00 0.00 0.00 0.00 0.00 0.00 0.00 0.00 0.00 0.00 0.00 0.00 0.00
0.00 0.00 0.00 0.00 0.00 0.00 0.00 0.00 0.00 0.00 0.00 0.00 0.00 0.00 0.00 0.00 0.00 0.00 0.00 0.00 0.00 0.00 0.00 0.00 0.00 0.00 0.00 0.00 0.00 0.00 0.00 0.00
0.00 0.00 0.00 0.00 0.00 0.00 0.00 0.00 0.00 0.00 0.00 0.00 0.00 0.00 0.00 0.00 0.00 0.00 0.00 0.00 0.00 0.00 0.00 0.00 0.00 0.00 0.00 0.00 0.00 0.00 0.00 0.00
0.00 0.00 0.00 0.00 0.00 0.00 0.00 0.00 0.00 0.00 0.00 0.00 0.00 0.00 0.00 0.00 0.00 0.00 0.00 0.00 0.00 0.00 0.00 0.01 0.01 0.00 0.00 0.01 0.00 0.00 0.00 0.00
0.00 0.00 0.00 0.00 0.00 0.00 0.00 0.00 0.00 0.00 0.00 0.00 0.00 0.00 0.00 0.00 0.00 0.01 0.01 0.01 0.03 0.05 0.05 0.05 0.02 0.01 0.00 0.00 0.00 0.00 0.00 0.00
0.00 0.00 0.00 0.00 0.00 0.00 0.00 0.00 0.00 0.00 0.00 0.00 0.00 0.00 0.00 0.00 0.00 0.02 0.04 0.03 0.05 0.08 0.06 0.04 0.04 0.01 0.00 0.00 0.00 0.00 0.00 0.00
0.00 0.00 0.00 0.00 0.00 0.00 0.00 0.00 0.00 0.00 0.00 0.00 0.00 0.00 0.00 0.00 0.00 0.02 0.04 0.08 0.11 0.10 0.09 0.07 0.04 0.01 0.00 0.00 0.00 0.00 0.00 0.00
0.00 0.00 0.00 0.00 0.00 0.00 0.00 0.00 0.00 0.00 0.00 0.00 0.00 0.00 0.00 0.00 0.01 0.06 0.13 0.12 0.13 0.15 0.14 0.10 0.06 0.02 0.01 0.00 0.00 0.00 0.00 0.00
MSLP
1011.36 1012.34 1012.96 1013.59 1015.15 1016.84 1016.09 1014.34 1015.20 1016.31 1016.28 1016.41 1016.46 1016.53 1017.02 1017.19 1017.32 1017.87 1018.52 1019.03 1019.51 1019.71 1020.10 1020.44 1020.67 1021.12 1021.61 1021.99 1022.51 1022.93 1023.26 1023.61
1011.92 1012.43 1013.11 1013.92 1013.83 1015.34 1016.19 1014.38 1015.33 1016.15 1016.32 1016.70 1016.99 1017.07 1017.25 1017.61 1017.64 1018.31 1018.62 1019.22 1019.80 1020.14 1020.25 1020.57 1021.09 1021.35 1021.84 1022.33 1022.75 1023.21 1023.53 1023.76
1012.55 1012.89 1013.18 1013.65 1014.66 1015.19 1015.61 1014.83 1015.52 1016.26 1016.52 1017.20 1017.21 1017.54 1017.86 1018.02 1018.29 1018.78 1018.84 1019.29 1019.81 1020.55 1020.61 1020.79 1021.24 1021.62 1022.09 1022.46 1022.93 1023.61 1023.68 1023.87
1012.54 1012.79 1013.58 1013.93 1014.80 1015.47 1015.56 1015.53 1015.84 1016.29 1016.87 1017.25 1017.34 1017.82 1017.93 1018.09 1018.56 1019.14 1019.35 1019.37 1019.59 1020.63 1021.11 1021.28 1021.72 1022.26 1022.60 1022.71 1023.35 1023.69 1023.85 1024.10
1013.57 1013.36 1013.32 1014.96 1015.48 1016.14 1016.54 1017.09 1016.93 1017.03 1017.11 1017.04 1017.57 1018.08 1018.18 1018.54 1019.17 1019.60 1019.79 1019.72 1020.17 1020.96 1021.54 1021.94 1022.16 1022.44 1022.91 1023.22 1023.51 1023.87 1023.88 1024.05
1014.08 1014.10 1013.92 1014.60 1015.02 1016.16 1016.85 1017.48 1017.34 1016.93 1016.98 1017.11 1017.69 1018.19 1018.69 1019.00 1019.37 1019.88 1019.98 1019.91 1020.84 1021.31 1021.73 1022.09 1022.43 1022.95 1023.01 1023.35 1023.58 1023.81 1024.23 1024.25
1014.00 1013.97 1014.34 1015.08 1015.62 1016.10 1016.56 1017.01 1017.15 1016.88 1017.22 1017.22 1017.54 1018.24 1018.82 1019.48 1019.50 1020.04 1020.51 1020.45 1021.17 1021.73 1021.89 1022.47 1022.81 1023.10 1023.10 1023.25 1023.57 1023.79 1024.15 1024.37
1013.89 1014.40 1014.68 1015.09 1015.59 1015.80 1016.05 1016.45 1016.76 1017.09 1017.13 1017.49 1017.80 1018.19 1018.69 1019.48 1019.68 1020.41 1020.89 1020.75 1021.30 1021.76 1022.05 1022.69 1023.10 1023.18 1023.35 1023.45 1023.63 1023.83 1024.06 1024.24
1013.79 1014.51 1014.79 1015.12 1015.73 1015.92 1016.21 1016.24 1016.66 1016.99 1017.06 1017.64 1017.98 1018.27 1018.87 1019.36 1019.87 1020.52 1020.58 1021.04 1021.39 1021.95 1022.32 1022.75 1023.31 1023.55 1023.64 1023.88 1023.95 1023.97 1024.16 1024.35
1014.47 1014.91 1015.43 1016.05 1016.27 1016.08 1016.44 1016.64 1016.78 1017.07 1017.40 1017.69 1017.90 1018.29 1019.07 1019.15 1019.99 1020.42 1020.22 1021.00 1021.41 1021.95 1022.38 1023.16 1023.46 1023.65 1023.97 1024.21 1024.22 1024.25 1024.34 1024.59
1014.77 1015.28 1015.34 1015.84 1015.98 1016.15 1016.52 1016.73 1017.15 1017.38 1017.36 1017.83 1018.08 1018.56 1018.75 1019.05 1019.67 1019.97 1020.24 1020.94 1021.41 1021.90 1022.62 1023.11 1023.64 1023.92 1024.01 1024.36 1024.45 1024.51 1024.58 1024.76
1014.97 1015.15 1015.53 1016.02 1016.21 1016.42 1016.80 1017.28 1017.76 1017.69 1017.49 1018.05 1018.16 1018.72 1018.25 1019.18 1019.65 1019.75 1020.22 1020.70 1021.29 1021.68 1022.20 1022.94 1023.49 1023.85 1024.31 1024.61 1024.87 1025.13 1025.19 1025.23
1015.09 1015.31 1015.82 1016.17 1016.57 1016.65 1017.12 1017.44 1017.73 1018.01 1018.12 1018.37 1018.60 1018.53 1018.55 1019.33 1019.67 1019.76 1020.24 1020.87 1021.06 1021.56 1022.17 1022.92 1023.45 1023.94 1024.70 1025.12 1025.10 1025.07 1025.17 1025.23
1014.77 1015.24 1015.59 1015.95 1016.21 1016.39 1016.95 1017.49 1017.55 1017.75 1017.80 1017.64 1018.23 1018.37 1018.14 1018.96 1019.30 1019.77 1020.12 1020.80 1021.19 1021.62 1021.92 1022.81 1023.54 1023.77 1024.44 1025.01 1025.32 1025.20 1025.01 1024.85
1014.60 1014.95 1015.27 1015.74 1016.22 1016.89 1017.29 1017.76 1017.79 1017.90 1017.76 1018.01 1018.36 1018.14 1018.29 1018.66 1019.10 1019.56 1019.92 1020.26 1020.84 1021.06 1021.43 1022.10 1022.96 1023.44 1023.34 1023.77 1024.94 1024.63 1024.58 1024.33
1014.25 1014.58 1015.01 1015.56 1016.24 1016.62 1017.05 1017.40 1017.45 1017.76 1017.80 1017.79 1017.74 1017.80 1018.05 1018.51 1018.92 1019.39 1019.24 1020.15 1020.32 1020.53 1020.91 1021.53 1021.90 1022.56 1023.20 1023.03 1022.99 1023.16 1024.07 1024.43
1013.78 1014.19 1014.50 1015.08 1015.86 1016.18 1016.57 1017.19 1017.02 1017.12 1017.46 1017.63 1017.72 1017.76 1017.84 1018.16 1018.66 1018.54 1019.03 1019.61 1019.68 1020.13 1020.76 1021.28 1021.42 1021.82 1021.98 1022.74 1022.98 1023.10 1023.50 1023.92
1013.21 1013.75 1014.24 1014.68 1015.03 1015.38 1015.80 1016.15 1016.47 1016.95 1017.23 1017.39 1017.32 1017.29 1017.56 1017.59 1017.76 1017.99 1018.62 1018.83 1019.19 1019.49 1019.88 1020.40 1020.86 1021.12 1021.25 1021.44 1021.73 1022.41 1022.96 1023.27
1012.48 1012.92 1013.30 1013.83 1014.31 1014.50 1014.84 1015.26 1015.72 1016.07 1016.27 1016.38 1016.79 1016.94 1017.07 1016.96 1017.24 1017.89 1018.02 1018.04 1018.73 1019.16 1019.52 1019.96 1020.07 1020.46 1020.51 1020.71 1020.85 1021.26 1021.88 1022.53
1011.49 1011.93 1012.33 1012.75 1013.28 1013.80 1014.19 1014.43 1014.91 1015.39 1015.47 1015.98 1016.05 1016.23 1016.16 1016.48 1016.82 1016.92 1016.89 1017.36 1018.29 1018.73 1019.19 1019.60 1019.67 1020.03 1020.31 1020.28 1020.62 1021.08 1021.58 1022.08
Thickness
5651 5642 5640 5638 5629 5616 5625 5648 5648 5644 5650 5653 5657 5661 5659 5661 5662 5656 5652 5647 5646 5643 5639 5636 5635 5634 5631 5630 5626 5624 5623 5620
5643 5638 5634 5631 5633 5626 5623 5645 5643 5641 5648 5648 5649 5653 5654 5653 5654 5648 5647 5642 5639 5637 5634 5630 5627 5628 5627 5625 5622 5620 5619 5618
5633 5633 5632 5631 5625 5624 5625 5637 5639 5637 5641 5639 5645 5646 5646 5645 5644 5640 5642 5638 5634 5630 5628 5625 5622 5623 5622 5621 5619 5615 5616 5615
5635 5633 5624 5621 5619 5618 5622 5626 5633 5633 5633 5637 5641 5641 5642 5642 5637 5630 5632 5633 5630 5623 5622 5618 5616 5615 5614 5616 5613 5612 5612 5609
5623 5623 5622 5609 5610 5607 5613 5612 5620 5625 5629 5635 5635 5634 5638 5634 5627 5623 5624 5626 5621 5614 5612 5609 5610 5612 5611 5610 5610 5607 5609 5608
5616 5616 5619 5615 5616 5611 5611 5609 5615 5622 5629 5632 5632 5631 5628 5626 5622 5617 5618 5621 5613 5609 5608 5606 5605 5605 5608 5607 5607 5606 5603 5604
5619 5620 5616 5611 5610 5612 5612 5611 5616 5624 5625 5629 5630 5626 5621 5616 5617 5611 5607 5608 5603 5600 5602 5599 5599 5601 5606 5606 5607 5606 5603 5601
5619 5616 5614 5613 5614 5616 5616 5615 5615 5618 5624 5623 5623 5620 5615 5611 5608 5602 5598 5602 5598 5596 5598 5595 5596 5598 5601 5603 5603 5602 5599 5598
5620 5614 5614 5611 5611 5613 5611 5614 5614 5615 5619 5617 5615 5612 5610 5603 5602 5596 5597 5594 5593 5592 5592 5593 5593 5593 5596 5595 5596 5596 5594 5593
5611 5610 5607 5603 5604 5607 5606 5607 5610 5611 5611 5610 5611 5608 5599 5601 5595 5592 5596 5592 5592 5591 5591 5589 5590 5591 5590 5589 5590 5591 5589 5587
5603 5602 5605 5601 5603 5602 5603 5604 5601 5603 5607 5604 5603 5599 5598 5597 5594 5593 5592 5590 5591 5589 5588 5587 5584 5584 5586 5585 5586 5585 5583 5579
5599 5600 5600 5597 5598 5597 5598 5596 5593 5596 5601 5597 5598 5592 5599 5594 5592 5594 5591 5593 5592 5592 5590 5586 5583 5582 5581 5579 5577 5575 5574 5573
5602 5600 5596 5595 5593 5593 5591 5590 5591 5590 5592 5591 5587 5591 5595 5592 5592 5592 5592 5590 5591 5591 5588 5582 5580 5577 5572 5568 5568 5569 5568 5565
5606 5604 5601 5597 5598 5597 5593 5588 5590 5591 5591 5593 5589 5593 5598 5595 5593 5592 5590 5588 5586 5586 5585 5578 5575 5575 5570 5563 5562 5562 5561 5562
5610 5607 5607 5602 5597 5590 5588 5586 5589 5588 5591 5592 5590 5595 5596 5594 5592 5589 5589 5590 5587 5588 5585 5582 5575 5571 5573 5569 5552 5557 5558 5560
5614 5612 5610 5606 5597 5594 5591 5591 5593 5590 5591 5594 5595 5595 5593 5589 5588 5586 5593 5585 5588 5588 5585 5580 5578 5573 5567 5568 5567 5563 5555 5554
5618 5615 5615 5609 5601 5600 5598 5592 5597 5596 5593 5593 5594 5594 5592 5590 5587 5591 5592 5587 5589 5586 5581 5577 5575 5571 5569 5562 5559 5556 5551 5547
5622 5618 5615 5611 5608 5606 5604 5604 5601 5596 5593 5593 5594 5595 5591 5595 5595 5595 5588 5590 5588 5585 5582 5577 5573 5570 5569 5567 5562 5556 5548 5544
5628 5625 5622 5618 5614 5614 5612 5607 5603 5600 5599 5599 5595 5595 5595 5597 5597 5590 5591 5590 5583 5580 5578 5574 5574 5570 5569 5567 5563 5558 5550 5543
5633 5629 5626 5623 5619 5615 5612 5611 5606 5600 5602 5596 5598 5596 5598 5597 5592 5593 5593 5589 5581 5576 5572 5568 5568 5565 5562 5561 5556 5550 5544 5537